Clifton, OH

10:44 PM EDT on September 30, 2016 (GMT -0400)
Springfield-Beckley Municipal

Weather History for KSGH - September, 2013

Change the Weather History Date:

Friday, September 20, 2013

  Actual Average (KDAY) Record (KDAY)
Temperature  
Mean Temperature 76 °F 64 °F  
Max Temperature 86 °F 74 °F 95 °F (1908)
Min Temperature 66 °F 53 °F 36 °F (1991)
Degree Days  
Heating Degree Days 0 4  
Month to date heating degree days 36  
Since 1 July heating degree days 38  
Cooling Degree Days 11 2  
Month to date cooling degree days 82  
Year to date cooling degree days 864  
Growing Degree Days 26 (Base 50)    
Moisture  
Dew Point 68 °F    
Average Humidity 91    
Maximum Humidity 100    
Minimum Humidity 53    
Precipitation  
Precipitation 1.69 in 0.11 in 1.73 in (1932)
Month to date precipitation 2.22  
Year to date precipitation 30.53  
Snow  
Snow 0.00 in 0.00 in - ()
Month to date snowfall 0.0  
Since 1 July snowfall 0.0  
Since 1 September snowfall 0.0  
Snow Depth -    
Sea Level Pressure  
Sea Level Pressure 29.90 in    
Wind  
Wind Speed 8 mph (SSW)    
Max Wind Speed 20 mph    
Max Gust Speed 28 mph    
Visibility 3 miles    
Events Fog , Rain , Thunderstorm    
T = Trace of Precipitation, MM = Missing Value Source: NWS Daily Summary

Daily Weather History Graph

Daily Weather History Graph

Search for Another Location

Airport or City:

Trip Planner

Search our weather history database for the weather conditions in past years. The results will help you decide how hot, cold, wet, or windy it might be!

Date:

Astronomy

Sep. 20, 2013 Rise Set
Actual Time 7:21 AM EDT 7:35 PM EDT
Civil Twilight 6:54 AM EDT 8:02 PM EDT
Nautical Twilight 6:22 AM EDT 8:33 PM EDT
Astronomical Twilight 5:50 AM EDT 9:06 PM EDT
Moon 8:08 PM EDT (9/20) 8:34 AM EDT (9/20)
Length of Visible Light 13h 08m
Length of Day
12h 14m
Full, 98% of the Moon is Illuminated
Sep 20
Full
Sep 26
Last Quarter
Oct 4
New
Oct 11
First Quarter
Oct 18
Full

Hourly Weather History & Observations

Time (EDT) Temp. Heat Index Dew Point Humidity Pressure Visibility Wind Dir Wind Speed Gust Speed Precip Events Conditions
12:56 AM 66.9 °F - 65.8 °F 96% 30.02 in 5.0 mi South 3.5 mph - N/A   Clear
1:56 AM 66.9 °F - 65.8 °F 96% 30.01 in 4.0 mi South 5.8 mph - N/A   Clear
2:56 AM 68.9 °F - 68.0 °F 97% 30.00 in 4.0 mi South 8.1 mph - N/A   Clear
3:56 AM 68.0 °F - 68.0 °F 100% 29.98 in 3.0 mi South 3.5 mph - N/A   Clear
4:56 AM 68.0 °F - 68.0 °F 100% 29.96 in 3.0 mi South 6.9 mph - N/A   Clear
5:56 AM 68.0 °F - 66.9 °F 96% 29.96 in 3.0 mi South 5.8 mph - N/A   Clear
6:56 AM 66.9 °F - 66.9 °F 100% 29.97 in 3.0 mi South 5.8 mph - N/A   Clear
7:06 AM 66.2 °F - 66.2 °F 100% 29.98 in 2.5 mi South 5.8 mph - N/A   Clear
7:14 AM 66.2 °F - 66.2 °F 100% 29.98 in 3.0 mi South 5.8 mph - N/A   Clear
7:36 AM 68.0 °F - 66.2 °F 94% 29.99 in 2.0 mi South 6.9 mph - N/A   Clear
7:56 AM 68.0 °F - 66.9 °F 96% 29.98 in 2.5 mi South 6.9 mph - N/A   Clear
8:26 AM 69.8 °F - 68.0 °F 94% 29.99 in 3.0 mi South 4.6 mph - N/A   Clear
8:56 AM 70.0 °F - 68.0 °F 93% 29.97 in 3.0 mi South 6.9 mph - N/A   Clear
9:56 AM 73.9 °F - 68.9 °F 84% 29.96 in 5.0 mi South 9.2 mph - N/A   Haze
10:56 AM 79.0 °F - 68.9 °F 71% 29.95 in 6.0 mi SW 12.7 mph 18.4 mph N/A   Haze
11:56 AM 81.9 °F 85.2 °F 68.9 °F 65% 29.94 in 6.0 mi SW 12.7 mph 18.4 mph N/A   Haze
12:56 PM 82.9 °F 86.3 °F 68.9 °F 62% 29.91 in 7.0 mi SW 13.8 mph 19.6 mph N/A   Partly Cloudy
1:56 PM 84.9 °F 88.8 °F 68.9 °F 59% 29.89 in 6.0 mi SW 10.4 mph 17.3 mph N/A   Haze
2:56 PM 86.0 °F 89.4 °F 68.0 °F 55% 29.86 in 7.0 mi SSW 13.8 mph 20.7 mph N/A   Partly Cloudy
3:56 PM 86.9 °F 90.3 °F 68.0 °F 53% 29.83 in 7.0 mi SSW 9.2 mph - N/A   Scattered Clouds
4:56 PM 84.9 °F 87.6 °F 66.9 °F 55% 29.81 in 6.0 mi SSW 8.1 mph 19.6 mph N/A   Haze
5:56 PM 81.0 °F 83.8 °F 68.0 °F 65% 29.82 in 7.0 mi SSW 6.9 mph - N/A   Clear
6:16 PM 77.0 °F - 69.8 °F 78% 29.86 in 6.0 mi West 16.1 mph 23.0 mph N/A Thunderstorm Haze
6:26 PM 73.4 °F - 69.8 °F 88% 29.87 in 3.0 mi West 17.3 mph 25.3 mph 0.01 in Rain , Thunderstorm Light Thunderstorms and Rain
6:28 PM 71.6 °F - 69.8 °F 94% 29.87 in 1.8 mi West 12.7 mph 25.3 mph 0.04 in Rain , Thunderstorm Light Thunderstorms and Rain
6:31 PM 71.6 °F - 69.8 °F 94% 29.86 in 1.0 mi West 15.0 mph 25.3 mph 0.09 in Rain , Thunderstorm Light Thunderstorms and Rain
6:33 PM 71.6 °F - 69.8 °F 94% 29.87 in 0.8 mi West 15.0 mph 25.3 mph 0.11 in Rain Heavy Rain
6:39 PM 69.8 °F - 69.8 °F 100% 29.88 in 1.0 mi WSW 10.4 mph - 0.15 in Rain Heavy Rain
6:47 PM 69.8 °F - 69.8 °F 100% 29.89 in 0.8 mi SW 19.6 mph 27.6 mph 0.37 in   Overcast
6:56 PM 70.0 °F - 68.9 °F 96% 29.86 in 0.5 mi WSW 10.4 mph 27.6 mph 0.58 in Fog Fog
6:58 PM 69.8 °F - 69.8 °F 100% 29.88 in 0.8 mi WSW 11.5 mph - 0.00 in Rain Heavy Rain
7:00 PM 69.8 °F - 69.8 °F 100% 29.88 in 1.0 mi WSW 10.4 mph - 0.01 in Rain Rain
7:02 PM 69.8 °F - 69.8 °F 100% 29.87 in 1.5 mi WSW 9.2 mph - 0.01 in Rain Rain
7:07 PM 69.8 °F - 69.8 °F 100% 29.87 in 3.0 mi Variable 6.9 mph - 0.02 in Rain Light Rain
7:19 PM 69.8 °F - 69.8 °F 100% 29.88 in 2.5 mi SSW 5.8 mph - 0.09 in Rain Rain
7:22 PM 69.8 °F - 69.8 °F 100% 29.88 in 1.2 mi SSW 3.5 mph - 0.15 in Rain Light Rain
7:32 PM 69.8 °F - 69.8 °F 100% 29.89 in 1.5 mi SW 9.2 mph - 0.27 in Rain Heavy Rain
7:35 PM 69.8 °F - 69.8 °F 100% 29.89 in 1.0 mi SW 13.8 mph 19.6 mph 0.32 in Rain Heavy Rain
7:38 PM 69.8 °F - 68.0 °F 94% 29.88 in 1.0 mi WSW 11.5 mph 19.6 mph 0.34 in Rain Heavy Rain
7:41 PM 69.8 °F - 68.0 °F 94% 29.88 in 1.2 mi SW 9.2 mph 19.6 mph 0.36 in Rain , Thunderstorm Heavy Thunderstorms and Rain
7:45 PM 69.8 °F - 66.2 °F 88% 29.88 in 2.0 mi SW 9.2 mph - 0.37 in Rain , Thunderstorm Thunderstorms and Rain
7:56 PM 68.0 °F - 66.9 °F 96% 29.86 in 2.0 mi SW 6.9 mph - 0.44 in Rain Heavy Rain
8:04 PM 68.0 °F - 66.2 °F 94% 29.88 in 1.8 mi SW 9.2 mph - 0.04 in Rain Rain
8:09 PM 68.0 °F - 68.0 °F 100% 29.88 in 3.0 mi SW 9.2 mph - 0.06 in Rain Rain
8:31 PM 69.8 °F - 68.0 °F 94% 29.88 in 3.0 mi SSW 6.9 mph - 0.10 in Rain Light Rain
8:38 PM 69.8 °F - 68.0 °F 94% 29.88 in 2.5 mi SSW 5.8 mph - 0.11 in Rain Light Rain
8:56 PM 68.9 °F - 68.0 °F 97% 29.86 in 2.5 mi South 3.5 mph - 0.14 in Rain Light Rain
9:11 PM 69.8 °F - 68.0 °F 94% 29.88 in 1.8 mi SSW 3.5 mph - 0.04 in Rain Rain
9:20 PM 69.8 °F - 69.8 °F 100% 29.88 in 1.2 mi SSW 5.8 mph - 0.11 in Rain Heavy Rain
9:35 PM 69.8 °F - 69.8 °F 100% 29.88 in 2.0 mi SSW 5.8 mph - 0.18 in Rain Rain
9:56 PM 68.9 °F - 68.9 °F 100% 29.85 in 2.5 mi South 4.6 mph - 0.22 in Rain Light Rain
10:56 PM 68.0 °F - 68.0 °F 100% 29.82 in 2.0 mi South 3.5 mph - 0.05 in Rain Light Rain
11:26 PM 68.0 °F - 68.0 °F 100% 29.85 in 2.0 mi South 8.1 mph - 0.03 in Rain Light Rain
11:39 PM 68.0 °F - 68.0 °F 100% 29.84 in 1.8 mi South 8.1 mph - 0.08 in Rain Rain
11:56 PM 68.0 °F - 68.0 °F 100% 29.81 in 1.0 mi Calm Calm - 0.26 in Rain Heavy Rain